www.pogodaiklimat.ru

Погода и климат >> Архив погоды >> Бразилия >> Пиауи >> Флориано


ПОГОДА в Флориано

  • Прогноз погоды в Флориано
  • Монитор погоды в Флориано

АРХИВ ПОГОДЫ в Флориано

Время (UTC), дата Ветер
(напр.,м/с)
 
Видим.   Явления Облачность Т
(С)
Тd
(С)
f
(%)
Тe
(С)
Тes
(С)
Комфортность P
(гПа)
Po
(гПа)
Тmin
(С)
Tmax
(С)
R
(мм)
R24
(мм)
S
(см)
19 8.02 С 1
{2}
н/о н/о +32.4 +22.5 56 +42 +42 опасность
перегрева
1006.0 991.9
20 8.02 СВ 1
{1}
н/о н/о +31.4 +23.2 62 +42 +42 опасность
перегрева
1006.1 991.9
21 8.02 штиль 0
{1}
н/о н/о +30.3 +23.7 68 +41 +41 опасность
перегрева
1006.4 992.2
22 8.02 штиль 0 н/о н/о +28.3 +23.5 75 +38 +38 очень
душно
1007.0 992.7
23 8.02 СЗ 1
{1}
н/о н/о +28.5 +22.6 70 +37 +37 очень
душно
1007.5 993.2
00 9.02 штиль 0
{2}
н/о н/о +28.1 +22.6 72 +37 +37 очень
душно
1008.8 994.4
01 9.02 штиль 0 н/о н/о +26.7 +23.8 84 +37 +37 очень
душно
1009.2 994.8
02 9.02 В 1
{3}
н/о н/о +25.8 +23.0 85 +34 +34 очень
душно
1010.5 996.0 2
03 9.02 СВ 1
{2}
н/о н/о +24.9 +21.7 82 +32 +32 очень
душно
1010.3 995.8 0.2
04 9.02 ЮВ 1
{3}
н/о н/о +24.6 +22.3 87 +32 +32 очень
душно
1010.2 995.6
05 9.02 С 1
{3}
н/о н/о +24.4 +22.4 89 +32 +32 очень
душно
1008.9 994.4 7
06 9.02 С 1
{3}
н/о н/о +23.8 +22.1 90 +31 +31 очень
душно
1008.6 994.0 10
07 9.02 В 1
{2}
н/о н/о +23.8 +22.1 90 +31 +31 очень
душно
1008.0 993.4
08 9.02 штиль 0
{2}
н/о н/о +23.8 +22.1 90 +31 +31 очень
душно
1008.9 994.3
09 9.02 штиль 0
{1}
н/о н/о +23.8 +22.0 90 +31 +31 очень
душно
1009.9 995.3
10 9.02 штиль 0
{1}
н/о н/о +24.3 +22.4 89 +32 +32 очень
душно
1011.0 996.4
11 9.02 ЮВ 1
{1}
н/о н/о +25.2 +22.4 84 +33 +33 очень
душно
1011.7 997.2
12 9.02 СВ 1
{2}
н/о н/о +26.7 +22.9 80 +36 +36 очень
душно
1012.1 997.6
13 9.02 СВ 1
{2}
н/о н/о +26.9 +23.4 81 +36 +36 очень
душно
1012.3 997.8
14 9.02 С 1
{2}
н/о н/о +28.8 +23.8 74 +39 +39 очень
душно
1012.0 997.6
15 9.02 СВ 1
{2}
н/о н/о +29.8 +22.4 65 +39 +39 очень
душно
1011.4 997.1
16 9.02 В 1
{3}
н/о н/о +31.0 +22.3 60 +40 +40 очень
душно
1010.3 996.1
17 9.02 СВ 1
{3}
н/о н/о +32.7 +22.8 56 +43 +43 опасность
перегрева
1009.4 995.2
18 9.02 СЗ 1
{2}
н/о н/о +32.3 +23.5 60 +43 +43 опасность
перегрева
1008.3 994.1
19 9.02 штиль 0
{2}
н/о н/о +31.9 +23.4 61 +43 +43 опасность
перегрева
1007.7 993.5
20 9.02 штиль 0
{1}
н/о н/о +31.3 +22.6 60 +41 +41 опасность
перегрева
1007.5 993.3
21 9.02 штиль 0
{1}
н/о н/о +29.9 +22.5 65 +39 +39 очень
душно
1007.5 993.2
22 9.02 штиль 0
{1}
н/о н/о +28.2 +24.4 80 +40 +40 очень
душно
1008.1 993.8
11 10.02 СВ 1
{1}
н/о н/о +25.5 +24.0 91 +35 +35 очень
душно
1011.3 996.8
12 10.02 С 1
{2}
н/о н/о +27.4 +23.3 78 +37 +37 очень
душно
1011.9 997.5
13 10.02 СЗ 1
{2}
н/о н/о +30.0 +23.8 69 +41 +41 опасность
перегрева
1011.7 997.4
14 10.02 С 1
{2}
н/о н/о +30.0 +23.4 68 +41 +41 опасность
перегрева
1011.3 997.0
15 10.02 ЮВ 1
{4}
н/о н/о +26.1 +23.2 84 +35 +35 очень
душно
1011.7 997.2 0.8
16 10.02 СВ 1
{3}
н/о н/о +29.6 +25.1 77 +43 +43 опасность
перегрева
1010.5 996.2 0.2
17 10.02 СВ 1
{2}
н/о н/о +28.9 +23.3 72 +39 +39 очень
душно
1010.1 995.8
18 10.02 С 1
{2}
н/о н/о +31.2 +23.3 63 +42 +42 опасность
перегрева
1009.2 995.0
19 10.02 СВ 1
{2}
н/о н/о +30.6 +23.2 65 +41 +41 опасность
перегрева
1008.2 994.0
20 10.02 З 1
{1}
н/о н/о +31.5 +22.6 59 +41 +41 опасность
перегрева
1008.2 994.0
21 10.02 штиль 0
{1}
н/о н/о +29.7 +23.2 68 +40 +40 очень
душно
1008.7 994.4
22 10.02 штиль 0
{1}
н/о н/о +27.7 +23.7 79 +38 +38 очень
душно
1009.1 994.7
23 10.02 штиль 0
{1}
н/о н/о +27.1 +23.4 80 +37 +37 очень
душно
1009.6 995.2
01 11.02 штиль 0
{1}
н/о н/о +26.1 +23.5 86 +35 +35 очень
душно
1010.8 996.3
02 11.02 штиль 0
{1}
н/о н/о +25.7 +23.3 87 +35 +35 очень
душно
1011.0 996.5
03 11.02 штиль 0 н/о н/о +24.9 +23.1 90 +33 +33 очень
душно
1010.7 996.2
04 11.02 штиль 0 н/о н/о +24.6 +22.8 90 +33 +33 очень
душно
1010.6 996.0
05 11.02 Ю 1
{1}
н/о н/о +24.3 +22.5 90 +32 +32 очень
душно
1010.0 995.4
06 11.02 штиль 0
{1}
н/о н/о +24.1 +22.3 90 +31 +31 очень
душно
1009.7 995.1
07 11.02 штиль 0
{1}
н/о н/о +23.8 +22.1 90 +31 +31 очень
душно
1010.6 996.0
08 11.02 штиль 0
{1}
н/о н/о +23.5 +21.9 91 +30 +30 очень
душно
1010.9 996.3
09 11.02 штиль 0 н/о н/о +23.5 +21.9 91 +30 +30 очень
душно
1011.7 997.1
10 11.02 штиль 0
{1}
н/о н/о +24.7 +22.7 89 +33 +33 очень
душно
1012.9 998.3
11 11.02 штиль 0
{1}
н/о н/о +25.9 +23.8 88 +35 +35 очень
душно
1013.6 999.1
12 11.02 штиль 0
{1}
н/о н/о +27.2 +23.1 78 +36 +36 очень
душно
1014.1 999.6
13 11.02 ЮЗ 1
{2}
н/о н/о +29.9 +22.7 65 +39 +39 очень
душно
1013.6 999.3
14 11.02 СВ 1
{2}
н/о н/о +29.8 +23.2 68 +40 +40 очень
душно
1013.0 998.7
15 11.02 ЮВ 2
{3}
н/о н/о +31.8 +22.3 57 +41 +41 опасность
перегрева
1012.0 997.8
16 11.02 ЮВ 1
{3}
н/о н/о +32.8 +20.7 49 +40 +40 очень
душно
1010.8 996.6
17 11.02 ЮВ 2
{3}
н/о н/о +33.5 +20.1 45 +40 +40 очень
душно
1009.8 995.7
18 11.02 В 1
{3}
н/о н/о +34.2 +20.4 44 +41 +41 опасность
перегрева
1008.8 994.7
19 11.02 ЮВ 2
{3}
н/о н/о +34.4 +19.9 43 +40 +40 очень
душно
1008.1 994.0
20 11.02 В 1
{3}
н/о н/о +34.1 +20.2 44 +40 +40 очень
душно
1007.6 993.5
21 11.02 штиль 0
{2}
н/о н/о +32.0 +22.7 58 +42 +42 опасность
перегрева
1007.7 993.5
22 11.02 штиль 0
{1}
н/о н/о +30.4 +22.2 62 +39 +39 очень
душно
1008.0 993.8
23 11.02 штиль 0 н/о н/о +28.4 +22.8 72 +38 +38 очень
душно
1008.6 994.3
00 12.02 штиль 0
{1}
н/о н/о +27.1 +23.5 81 +37 +37 очень
душно
1009.5 995.1
01 12.02 штиль 0
{1}
н/о н/о +26.8 +22.5 77 +35 +35 очень
душно
1009.7 995.3
02 12.02 штиль 0
{1}
н/о н/о +25.7 +23.2 86 +34 +34 очень
душно
1010.0 995.5
03 12.02 штиль 0 н/о н/о +25.5 +23.2 87 +34 +34 очень
душно
1010.0 995.5
04 12.02 ЮЗ 1
{1}
н/о н/о +25.4 +22.9 86 +34 +34 очень
душно
1009.6 995.1
05 12.02 штиль 0
{1}
н/о н/о +24.7 +22.9 90 +33 +33 очень
душно
1009.3 994.8
06 12.02 штиль 0
{1}
н/о н/о +24.2 +22.5 90 +32 +32 очень
душно
1009.8 995.2
07 12.02 штиль 0
{1}
н/о н/о +24.5 +22.8 90 +32 +32 очень
душно
1010.0 995.4
08 12.02 Ю 1
{2}
н/о н/о +24.3 +22.0 87 +31 +31 очень
душно
1011.0 996.4
09 12.02 штиль 0
{2}
н/о н/о +24.2 +22.0 88 +31 +31 очень
душно
1011.8 997.2
10 12.02 штиль 0
{2}
н/о н/о +25.0 +22.6 87 +33 +33 очень
душно
1012.8 998.2
11 12.02 ЮВ 1
{2}
н/о н/о +25.6 +22.9 85 +34 +34 очень
душно
1013.6 999.0
12 12.02 штиль 0
{5}
н/о н/о +24.8 +22.4 87 +32 +32 очень
душно
1014.0 999.4 10
13 12.02 штиль 0
{1}
н/о н/о +26.0 +22.8 83 +35 +35 очень
душно
1013.7 999.2
14 12.02 С 1
{1}
н/о н/о +29.7 +22.9 67 +40 +40 очень
душно
1012.9 998.6
15 12.02 СЗ 1
{2}
н/о н/о +31.9 +23.2 60 +42 +42 опасность
перегрева
1011.8 997.6
16 12.02 СЗ 1
{2}
н/о н/о +32.0 +21.5 54 +40 +40 очень
душно
1010.7 996.5
17 12.02 СВ 1
{2}
н/о н/о +32.6 +22.6 56 +42 +42 опасность
перегрева
1009.7 995.5
18 12.02 С 1
{2}
н/о н/о +33.3 +21.7 51 +42 +42 опасность
перегрева
1008.5 994.4
19 12.02 СВ 1
{2}
н/о н/о +33.6 +22.0 51 +42 +42 опасность
перегрева
1007.8 993.7
20 12.02 С 1
{1}
н/о н/о +33.7 +23.6 56 +45 +45 опасность
перегрева
1007.6 993.5
21 12.02 штиль 0
{1}
н/о н/о +31.7 +23.3 61 +42 +42 опасность
перегрева
1007.7 993.5
22 12.02 штиль 0
{1}
н/о н/о +29.6 +23.0 68 +40 +40 очень
душно
1008.5 994.2
23 12.02 штиль 0
{1}
н/о н/о +28.9 +22.6 69 +38 +38 очень
душно
1009.4 995.1
00 13.02 штиль 0
{1}
н/о н/о +27.8 +23.6 78 +38 +38 очень
душно
1010.4 996.0
01 13.02 штиль 0 н/о н/о +27.1 +24.3 85 +38 +38 очень
душно
1010.6 996.2
02 13.02 штиль 0 н/о н/о +26.1 +24.0 88 +36 +36 очень
душно
1011.0 996.5
03 13.02 штиль 0 н/о н/о +25.7 +23.8 89 +35 +35 очень
душно
1010.8 996.3
04 13.02 СВ 1
{1}
н/о н/о +26.2 +23.6 86 +36 +36 очень
душно
1010.6 996.1
05 13.02 СВ 1
{1}
н/о н/о +25.4 +23.2 88 +34 +34 очень
душно
1010.6 996.1
06 13.02 С 1
{2}
н/о н/о +24.9 +21.5 81 +32 +32 очень
душно
1010.7 996.2
07 13.02 штиль 0
{1}
н/о н/о +24.3 +21.3 83 +31 +31 очень
душно
1010.8 996.2
08 13.02 штиль 0
{1}
н/о н/о +23.9 +21.1 84 +30 +30 очень
душно
1011.2 996.6
10 13.02 штиль 0
{2}
н/о н/о +24.2 +20.9 82 +30 +30 очень
душно
1012.5 997.9
11 13.02 СВ 1
{2}
н/о н/о +25.8 +20.7 73 +32 +32 очень
душно
1013.2 998.7
12 13.02 СВ 1
{2}
н/о н/о +28.3 +22.2 70 +37 +37 очень
душно
1013.8 999.4
13 13.02 СВ 1
{2}
н/о н/о +29.8 +22.4 65 +39 +39 очень
душно
1013.6 999.2
14 13.02 штиль 0
{1}
н/о н/о +29.7 +23.2 68 +40 +40 очень
душно
1013.5 999.1
15 13.02
{3}
н/о н/о +27.0 +23.2 80 1013.0 998.5
16 13.02 СЗ 1
{3}
н/о н/о +29.7 +24.1 72 +41 +41 опасность
перегрева
1011.4 997.1 0.4
17 13.02
{3}
н/о н/о +31.7 +22.8 59 1010.0 995.8
18 13.02 СВ 1
{2}
н/о н/о +33.1 +24.2 60 +45 +45 опасность
перегрева
1009.2 995.1
19 13.02 З 1
{2}
н/о н/о +30.2 +23.7 68 +41 +41 опасность
перегрева
1009.3 995.0
20 13.02 штиль 0
{2}
н/о н/о +29.9 +23.1 67 +40 +40 очень
душно
1009.1 994.8
21 13.02 З 1
{3}
н/о н/о +28.6 +23.5 74 +39 +39 очень
душно
1009.6 995.2
22 13.02 С 1
{3}
н/о н/о +27.2 +23.1 78 +36 +36 очень
душно
1010.1 995.7
23 13.02 СВ 1
{2}
н/о н/о +26.9 +23.0 79 +36 +36 очень
душно
1011.0 996.5
00 14.02 штиль 0
{1}
н/о н/о +26.4 +23.2 83 +36 +36 очень
душно
1012.5 998.0
01 14.02 штиль 0
{1}
н/о н/о +26.3 +23.3 84 +36 +36 очень
душно
1013.1 998.6
02 14.02 штиль 0
{1}
н/о н/о +26.1 +23.8 87 +36 +36 очень
душно
1013.4 998.9
03 14.02 В 1
{5}
н/о н/о +23.6 +21.1 86 +30 +30 очень
душно
1014.1 999.4 1
04 14.02 В 1
{4}
н/о н/о +22.3 +20.7 91 +29 +29 очень
душно
1012.8 998.1 23
05 14.02 С 1
{3}
н/о н/о +22.6 +21.1 91 +30 +30 очень
душно
1013.1 998.4 1
06 14.02 СВ 1
{2}
н/о н/о +22.5 +20.5 88 +29 +29 очень
душно
1012.8 998.1
07 14.02 В 1
{2}
н/о н/о +22.3 +20.4 89 +29 +29 очень
душно
1012.9 998.2
08 14.02 СЗ 1
{2}
н/о н/о +22.2 +20.2 88 +28 +28 душно 1012.8 998.1
09 14.02 штиль 0
{1}
н/о н/о +22.1 +20.2 89 +28 +28 душно 1012.8 998.1
10 14.02 В 1
{1}
н/о н/о +22.8 +20.7 88 +30 +30 очень
душно
1013.2 998.5 0.2
11 14.02 ЮВ 1
{2}
н/о н/о +23.7 +20.7 83 +30 +30 очень
душно
1014.8 1000.1
12 14.02 Ю 1
{2}
н/о н/о +26.1 +21.5 76 +33 +33 очень
душно
1015.6 1001.0
13 14.02 В 1
{2}
н/о н/о +27.2 +21.6 71 +35 +35 очень
душно
1015.3 1000.8
14 14.02 Ю 2
{4}
н/о н/о +29.4 +22.3 66 +38 +38 очень
душно
1015.0 1000.6
15 14.02 Ю 2
{4}
н/о н/о +30.5 +21.9 60 +39 +39 очень
душно
1014.1 999.8
16 14.02 ЮВ 2
{4}
н/о н/о +31.0 +20.4 53 +38 +38 очень
душно
1013.0 998.7
17 14.02 С 1
{3}
н/о н/о +32.4 +19.6 47 +38 +38 очень
душно
1011.4 997.2
18 14.02 СВ 1
{2}
н/о н/о +32.1 +21.7 54 +40 +40 очень
душно
1009.9 995.7
19 14.02 С 1
{2}
н/о н/о +30.1 +22.9 65 +40 +40 очень
душно
1009.6 995.3
20 14.02 СЗ 1
{2}
н/о н/о +29.9 +22.7 65 +39 +39 очень
душно
1009.9 995.6
21 14.02 штиль 0
{1}
н/о н/о +28.9 +22.9 70 +38 +38 очень
душно
1010.8 996.4
22 14.02 штиль 0
{1}
н/о н/о +27.7 +23.0 76 +37 +37 очень
душно
1011.1 996.7
23 14.02 штиль 0
{1}
н/о н/о +27.2 +23.3 79 +37 +37 очень
душно
1012.4 997.9
00 15.02 штиль 0
{1}
н/о н/о +26.9 +22.9 79 +36 +36 очень
душно
1013.0 998.5
01 15.02 штиль 0
{1}
н/о н/о +26.2 +23.3 84 +35 +35 очень
душно
1013.3 998.8
02 15.02 штиль 0
{1}
н/о н/о +26.2 +23.4 85 +36 +36 очень
душно
1013.1 998.6
03 15.02 штиль 0 н/о н/о +25.2 +23.2 89 +34 +34 очень
душно
1013.0 998.4
04 15.02 штиль 0
{1}
н/о н/о +25.1 +23.2 89 +34 +34 очень
душно
1012.5 997.9
05 15.02 штиль 0 н/о н/о +25.0 +23.0 89 +33 +33 очень
душно
1012.4 997.8
06 15.02 штиль 0
{1}
н/о н/о +24.7 +22.9 90 +33 +33 очень
душно
1012.1 997.5
07 15.02 штиль 0
{1}
н/о н/о +24.4 +22.8 91 +32 +32 очень
душно
1012.2 997.6
08 15.02 штиль 0 н/о н/о +24.2 +22.6 91 +32 +32 очень
душно
1012.4 997.8
11 15.02 С 1
{2}
н/о н/о +27.2 +22.4 75 +36 +36 очень
душно
1014.1 999.6
12 15.02 СВ 1
{2}
н/о н/о +27.2 +22.6 76 +36 +36 очень
душно
1014.7 1000.2
13 15.02 С 1
{2}
н/о н/о +28.3 +22.8 72 +38 +38 очень
душно
1014.8 1000.4
14 15.02 штиль 0
{2}
н/о н/о +29.1 +23.2 71 +39 +39 очень
душно
1014.2 999.8
15 15.02 С 1
{2}
н/о н/о +31.1 +22.5 60 +40 +40 очень
душно
1012.9 998.6
17 15.02 С 1
{2}
н/о н/о +32.2 +21.2 52 +40 +40 очень
душно
1010.0 995.8
18 15.02 З 1
{2}
н/о н/о +32.2 +22.3 56 +41 +41 опасность
перегрева
1008.8 994.6

 

Местоположение метеостанции Флориано (Пиауи, Бразилия): широта -6.77 долгота -43.02 высота над уровнем моря 125 м.

В архиве по умолчанию представлена погода в Флориано за последнюю неделю. Архивные данные за месяц целиком и за предыдущие месяцы, начиная с января 2011 года, Вы можете получить, выбрав интересующий диапазон дат из раскрывающегося списка и нажав кнопку "Ввод!".


*Определитесь, кто Вы:
робот инопланетянин человек

Внимание! Время в таблицах - всемирное. Для получения местного времени необходимо прибавить поправку, которая равна -3 ч.

Смотрите также архив погоды в соседних городах и на ближайших метеорологических станциях:

Погода в Флориано (Пиауи, Бразилия) (1 км)
Погода в Оэйраше (Пиауи, Бразилия) (99 км)
Погода в Сан-Педро-ду-Пьяуи (Пиауи, Бразилия) (100 км)
Погода в Валенса-ду-Пиауи (Пиауи, Бразилия) (148 км)
Погода в Колинасе (Мараньян, Бразилия) (157 км)
Погода в Урукуи (Пиауи, Бразилия) (166 км)
Погода в Пикусе (Пиауи, Бразилия) (173 км)
Погода в Пики (Пиауи, Бразилия) (182 км)
Погода в Терезине (Пиауи, Бразилия) (193 км)
Погода в Терезине (Пиауи, Бразилия) (194 км)

Пояснения к столбцам:

Ветер - указаны скорость ветра в м/с - средняя за 10 мин, порывы в срок и между сроками (в фигурных скобках) и направление, откуда дует ветер: С - северный, СВ - северо-восточный, В - восточный, ЮВ - юго-восточный, Ю - южный, ЮЗ - юго-западный, З - западный, СЗ - северо-западный.
Видимость - горизонтальная дальность видимости в метрах или километрах. При видимости от 1 до 10 км при отсутствии осадков обычно наблюдается дымка, при ухудшении видимости до 1 км и менее - туман. В сухую погоду видимость может ухудшаться дымом, пылью или мглою.
Явления - указаны атмосферные явления, наблюдавшиеся в срок или в последний час перед сроком; фигурными скобками обозначены явления, наблюдавшиеся между сроками (за 1-3 часа до срока); квадратными скобками обозначены град или гололедные отложения с указанием их диаметра в мм.
Облачность - указаны через наклонную черту общая и нижняя облачность в баллах и высота нижней границы облаков в метрах; квадратными скобками обозначены формы облаков: Ci - перистые, Cs - перисто-слоистые, Cc - перисто-кучевые, Ac - высококучевые, As - высокослоистые, Sc - слоисто-кучевые, Ns - слоисто-дождевые, Cu - кучевые, Cb - кучево-дождевые. Подробнее классификацию облаков см. в Атласе облаков (PDF).
T - Температура воздуха - температура, измеренная на высоте 2 м над землей.
Td - Температура точки росы - температура, при понижении до которой содержащийся в воздухе водяной пар достигнет насыщения.
f - Относительная влажность воздуха - влажноcть воздуха, измеренная на высоте 2 м над землей.
Te - Эффективная температура - температура, которую ощущает одетый по сезону человек в тени. Характеристика душности погоды. При расчете учитывается влияние влажности воздуха и скорости ветра на теплоощущения человека.
Tes - Эффективная температура на солнце - температура, которую ощущает человек, с поправкой на солнечный нагрев. Характеристика знойности погоды. Зависит от высоты солнца над горизонтом, облачности и скорости ветра. Ночью, в пасмурную погоду, а также при ветре 12 м/с и более поправка равна нулю.
P - Атмосферное давление - приведенное к уровню моря атмосферное давление.
Po - Атмосферное давление - измеренное на уровне метеостанции атмосферное давление.
Tmin - Минимальная температура - минимум температуры воздуха на высоте 2 м над землей.
Tmax - Максимальная температура - максимум температуры воздуха на высоте 2 м над землей.
R - Количество осадков - Количество выпавших осадков за период времени, мм. При наведении курсора мыши на число - период времени, за который выпало указанное количество осадков.
R24 - Количество осадков - Количество выпавших осадков за 24 часа, мм.
S - Снежный покров - Высота снежного покрова, см. При наведении курсора мыши на число - состояние снежного покрова и степень покрытия местности в баллах.